Weather History for Mobridge, SD

Change the Weather History Date:

Monday, November 5, 2012

  Actual Average Record
Temperature  
Mean Temperature 41 °F 38 °F  
Max Temperature 47 °F 49 °F 72 °F (1949)
Min Temperature 34 °F 27 °F -3 °F (1959)
Degree Days  
Heating Degree Days 24 27  
Month to date heating degree days 148 129  
Since 1 July heating degree days 905 903  
Cooling Degree Days 0 0  
Month to date cooling degree days 0 0  
Year to date cooling degree days 866 644  
Moisture  
Dew Point 36 °F    
Average Humidity 88    
Maximum Humidity 100    
Minimum Humidity 76    
Precipitation  
Precipitation 0.05 in 0.03 in 0.81 in (2008)
Month to date precipitation 0.08 0.16  
Year to date precipitation 12.89 17.11  
Snow  
Snow 0.00 in - - ()
Month to date snowfall T  
Since 1 July snowfall T  
Snow Depth 0.00 in    
Sea Level Pressure  
Sea Level Pressure 30.10 in    
Wind  
Wind Speed 7 mph (SSW)    
Max Wind Speed 22 mph    
Max Gust Speed 28 mph    
Visibility 7 miles    
Events Rain    
T = Trace of Precipitation, MM = Missing Value Source: NWS Daily Summary

Daily Weather History Graph

Daily Weather History Graph

Search for Another Location

Airport:

Trip Planner

Search our weather history database for the weather conditions in past years. The results will help you decide how hot, cold, wet, or windy it might be!

Date:

Astronomy

Nov. 05, 2012 Rise Set
Actual Time 7:27 AM CST 5:22 PM CST
Civil Twilight 6:56 AM CST 5:53 PM CST
Nautical Twilight 6:20 AM CST 6:28 PM CST
Astronomical Twilight 5:46 AM CST 7:03 PM CST
Moon 11:02 PM CST (11/5) 12:48 PM CST (11/5)
Length of Visible Light 10h 57m
Length of Day
9h 54m
Waning Gibbous, 62% of the Moon is Illuminated
Nov 5
Waning Gibbous
Nov 6
Last Quarter
Nov 13
New
Nov 20
First Quarter
Nov 28
Full

Hourly Weather History & Observations

Time (CST) Temp. Windchill Dew Point Humidity Pressure Visibility Wind Dir Wind Speed Gust Speed Precip Events Conditions
12:02 AM 33.8 °F - 33.8 °F 100% 30.18 in 1.8 mi Calm Calm - N/A   Overcast
12:17 AM 33.8 °F - 33.8 °F 100% 30.18 in 2.0 mi Calm Calm - N/A   Overcast
12:35 AM 33.8 °F - 33.8 °F 100% 30.19 in 1.8 mi Calm Calm - N/A   Overcast
12:52 AM 34.0 °F - 34.0 °F 100% 30.24 in 1.8 mi Calm Calm - N/A   Overcast
1:22 AM 35.6 °F - 33.8 °F 93% 30.18 in 2.5 mi Calm Calm - N/A   Overcast
1:31 AM 35.6 °F - 33.8 °F 93% 30.18 in 4.0 mi Calm Calm - N/A   Overcast
1:52 AM 35.1 °F - 34.0 °F 96% 30.23 in 5.0 mi Calm Calm - N/A   Overcast
2:52 AM 35.1 °F - 34.0 °F 96% 30.25 in 6.0 mi Calm Calm - N/A   Overcast
3:12 AM 35.6 °F - 33.8 °F 93% 30.19 in 6.0 mi Calm Calm - N/A   Overcast
3:32 AM 35.6 °F - 33.8 °F 93% 30.18 in 6.0 mi Calm Calm - N/A   Overcast
3:52 AM 36.0 °F - 34.0 °F 93% 30.24 in 6.0 mi Calm Calm - N/A   Overcast
4:18 AM 35.6 °F 31.7 °F 35.6 °F 100% 30.18 in 4.0 mi NW 4.6 mph - N/A   Overcast
4:43 AM 35.6 °F 32.8 °F 35.6 °F 100% 30.17 in 4.0 mi NNW 3.5 mph - N/A   Overcast
4:52 AM 36.0 °F - 35.1 °F 97% 30.23 in 4.0 mi Calm Calm - N/A   Overcast
5:15 AM 35.6 °F - 35.6 °F 100% 30.17 in 5.0 mi Calm Calm - N/A   Overcast
5:52 AM 36.0 °F - 34.0 °F 93% 30.22 in 5.0 mi Calm Calm - N/A   Overcast
6:52 AM 36.0 °F - 35.1 °F 97% 30.20 in 4.0 mi Calm Calm - N/A   Overcast
7:28 AM 35.6 °F - 35.6 °F 100% 30.15 in 4.0 mi Calm Calm - N/A   Overcast
7:52 AM 36.0 °F 33.3 °F 35.1 °F 97% 30.21 in 5.0 mi West 3.5 mph - N/A   Overcast
8:20 AM 37.4 °F - 35.6 °F 93% 30.16 in 4.0 mi Calm Calm - N/A   Overcast
8:52 AM 37.0 °F 34.5 °F 36.0 °F 96% 30.19 in 5.0 mi SSE 3.5 mph - N/A   Overcast
9:15 AM 37.4 °F 33.8 °F 35.6 °F 93% 30.14 in 6.0 mi South 4.6 mph - N/A   Overcast
9:52 AM 37.9 °F 33.5 °F 36.0 °F 93% 30.19 in 9.0 mi South 5.8 mph - N/A   Overcast
10:52 AM 39.0 °F 34.8 °F 36.0 °F 89% 30.15 in 10.0 mi SSW 5.8 mph - N/A   Overcast
11:52 AM 39.9 °F 33.9 °F 35.1 °F 83% 30.12 in 10.0 mi SSW 9.2 mph - N/A   Overcast
12:03 PM 41.0 °F 35.2 °F 35.6 °F 81% 30.06 in 10.0 mi SSW 9.2 mph - N/A   Overcast
12:52 PM 43.0 °F 35.7 °F 37.0 °F 80% 30.07 in 10.0 mi SSW 15.0 mph - N/A   Overcast
1:52 PM 44.1 °F 37.7 °F 37.0 °F 76% 30.01 in 10.0 mi South 12.7 mph - N/A   Overcast
2:29 PM 44.6 °F 37.8 °F 35.6 °F 71% 29.96 in 10.0 mi South 15.0 mph - N/A   Mostly Cloudy
2:52 PM 43.0 °F 36.0 °F 37.0 °F 80% 30.00 in 10.0 mi South 13.8 mph - 0.01 in Rain Light Rain
3:52 PM 42.1 °F 35.2 °F 39.0 °F 89% 29.95 in 10.0 mi SSE 12.7 mph - 0.02 in Rain Light Rain
4:52 PM 42.1 °F 33.6 °F 39.0 °F 89% 29.91 in 10.0 mi South 18.4 mph - 0.00 in Rain Light Rain
5:52 PM 42.1 °F 34.5 °F 39.9 °F 92% 29.91 in 9.0 mi South 15.0 mph - 0.02 in Rain Light Rain
6:52 PM 42.1 °F 34.9 °F 39.9 °F 92% 29.89 in 10.0 mi South 13.8 mph - 0.00 in   Mostly Cloudy
7:52 PM 41.0 °F 34.3 °F 39.0 °F 93% 29.85 in 10.0 mi SSE 11.5 mph - N/A   Clear
8:52 PM 42.1 °F 37.1 °F 39.9 °F 92% 29.85 in 10.0 mi South 8.1 mph - N/A   Scattered Clouds
9:52 PM 42.1 °F - 39.0 °F 89% 29.87 in 10.0 mi Calm Calm - N/A   Clear
10:52 PM 45.0 °F 39.3 °F 39.0 °F 80% 29.90 in 10.0 mi NW 11.5 mph - N/A   Clear
11:52 PM 42.1 °F 35.2 °F 36.0 °F 79% 29.91 in 10.0 mi NNW 12.7 mph - N/A   Clear